Easton, MD

7:10 AM EDT on September 19, 2019 (GMT -0400)
Easton / Newnam

Weather History for KESN - July, 2019

Change the Weather History Date:

Saturday, July 20, 2019

  Actual Average Record
Temperature  
Mean Temperature 88 °F -  
Max Temperature 96 °F 88 °F 96 °F (2019)
Min Temperature 80 °F 69 °F 61 °F (1965)
Cooling Degree Days 23    
Growing Degree Days 38 (Base 50)    
Moisture  
Dew Point 79 °F    
Average Humidity 77    
Maximum Humidity 94    
Minimum Humidity 47    
Precipitation  
Precipitation 0.00 in - - ()
Sea Level Pressure  
Sea Level Pressure 29.93 in    
Wind  
Wind Speed 4 mph (SW)    
Max Wind Speed 13 mph    
Max Gust Speed -    
Visibility 10 miles    
Events      
Averages and records for this station are not official NWS values.
T = Trace of Precipitation, MM = Missing Value Source: NWS Daily Summary

Daily Weather History Graph

Daily Weather History Graph

Search for Another Location

Airport or City:

Astronomy

Jul. 20, 2019 Rise Set
Actual Time 5:55 AM EDT 8:25 PM EDT
Civil Twilight 5:24 AM EDT 8:56 PM EDT
Nautical Twilight 4:46 AM EDT 9:34 PM EDT
Astronomical Twilight 4:03 AM EDT 10:16 PM EDT
Moon 10:53 PM EDT (7/20) 9:15 AM EDT (7/20)
Length of Visible Light 15h 31m
Length of Day
14h 30m
Waning Gibbous, 87% of the Moon is Illuminated
Jul 20
Waning Gibbous
Jul 24
Last Quarter
Jul 31
New
Aug 7
First Quarter
Aug 15
Full

Hourly Weather History & Observations

Time (EDT) Temp. Heat Index Dew Point Humidity Pressure Visibility Wind Dir Wind Speed Gust Speed Precip Events Conditions
12:00 AM 85.1 °F 99.0 °F 79.7 °F 84% 29.95 in 10.0 mi South 4.6 mph - N/A   Clear
12:20 AM 84.9 °F 98.9 °F 79.9 °F 85% 29.94 in 10.0 mi South 5.8 mph - N/A   Clear
12:40 AM 84.9 °F 98.9 °F 80.1 °F 85% 29.94 in 10.0 mi South 5.8 mph - N/A   Clear
1:00 AM 84.2 °F 97.4 °F 79.9 °F 87% 29.93 in 10.0 mi SSW 4.6 mph - N/A   Clear
1:20 AM 84.2 °F 97.4 °F 79.9 °F 87% 29.93 in 10.0 mi SSW 3.5 mph - N/A   Clear
1:40 AM 84.4 °F 98.0 °F 80.1 °F 87% 29.93 in 10.0 mi South 4.6 mph - N/A   Clear
2:00 AM 83.8 °F 96.7 °F 79.9 °F 88% 29.93 in 10.0 mi SSW 4.6 mph - N/A   Clear
2:20 AM 84.0 °F 96.8 °F 79.9 °F 87% 29.94 in 10.0 mi SSW 3.5 mph - N/A   Clear
2:40 AM 83.7 °F 96.1 °F 79.9 °F 88% 29.94 in 10.0 mi Calm Calm - N/A   Clear
3:00 AM 84.2 °F 97.0 °F 79.7 °F 86% 29.94 in 10.0 mi SSW 5.8 mph - N/A   Clear
3:20 AM 83.8 °F 95.8 °F 79.2 °F 86% 29.94 in 10.0 mi SW 3.5 mph - N/A   Clear
3:40 AM 83.7 °F 95.3 °F 79.0 °F 86% 29.94 in 10.0 mi SSW 3.5 mph - N/A   Clear
4:00 AM 83.7 °F 95.3 °F 79.0 °F 86% 29.93 in 10.0 mi SSW 4.6 mph - N/A   Clear
4:20 AM 83.3 °F 94.2 °F 78.8 °F 86% 29.93 in 10.0 mi SW 3.5 mph - N/A   Clear
4:40 AM 82.9 °F 93.8 °F 79.0 °F 88% 29.94 in 10.0 mi Calm Calm - N/A   Clear
5:00 AM 82.8 °F 93.2 °F 79.0 °F 88% 29.95 in 10.0 mi SW 3.5 mph - N/A   Clear
5:20 AM 81.7 °F 90.5 °F 78.6 °F 90% 29.95 in 10.0 mi SSW 3.5 mph - N/A   Clear
5:40 AM 81.9 °F 91.1 °F 78.6 °F 90% 29.95 in 10.0 mi Calm Calm - N/A   Clear
5:41 AM 81.7 °F 90.5 °F 78.6 °F 90% 29.96 in 10.0 mi Calm Calm - N/A   Clear
5:58 AM 80.6 °F 88.1 °F 78.8 °F 94% 29.97 in 10.0 mi Calm Calm - N/A   Clear
6:50 AM 82.4 °F 92.4 °F 78.8 °F 89% 29.97 in 10.0 mi Calm Calm - N/A   Clear
7:55 AM 86.0 °F 99.3 °F 78.8 °F 79% 29.97 in 10.0 mi Calm Calm - N/A   Clear
8:50 AM 89.6 °F 104.7 °F 78.8 °F 70% 29.96 in 10.0 mi NW 4.6 mph - N/A   Clear
9:50 AM 91.4 °F 105.1 °F 77.0 °F 63% 29.97 in 10.0 mi WNW 5.8 mph - N/A   Clear
10:45 AM 93.2 °F 107.2 °F 77.0 °F 59% 29.97 in 10.0 mi West 4.6 mph - N/A   Clear
11:51 AM 93.2 °F 107.2 °F 77.0 °F 59% 29.97 in 10.0 mi NW 6.9 mph - N/A   Clear
12:56 PM 95.0 °F 107.4 °F 75.2 °F 53% 29.94 in 10.0 mi West 4.6 mph - N/A   Clear
1:45 PM 96.8 °F 107.3 °F 73.4 °F 47% 29.92 in 10.0 mi SW 4.6 mph - N/A   Partly Cloudy
2:53 PM 96.8 °F 107.3 °F 73.4 °F 47% 29.91 in 10.0 mi SW 9.2 mph - N/A   Partly Cloudy
3:50 PM 96.8 °F 109.6 °F 75.2 °F 50% 29.89 in 10.0 mi SSW 12.7 mph - N/A   Partly Cloudy
4:50 PM 96.8 °F 112.2 °F 77.0 °F 53% 29.89 in 10.0 mi SW 10.4 mph - N/A   Partly Cloudy
5:45 PM 96.8 °F 109.6 °F 75.2 °F 50% 29.89 in 10.0 mi SSW 9.2 mph - N/A   Clear
6:50 PM 95.0 °F 109.7 °F 77.0 °F 56% 29.89 in 10.0 mi SSW 5.8 mph - N/A   Clear
7:50 PM 91.4 °F 107.2 °F 78.8 °F 66% 29.90 in 10.0 mi SW 4.6 mph - N/A   Scattered Clouds
8:52 PM 89.6 °F 108.2 °F 80.6 °F 75% 29.89 in 10.0 mi South 3.5 mph - N/A   Scattered Clouds
9:50 PM 87.8 °F 104.9 °F 80.6 °F 79% 29.90 in 10.0 mi South 4.6 mph - N/A   Clear
10:20 PM 88.2 °F 106.1 °F 80.8 °F 79% 29.90 in 10.0 mi SSW 4.6 mph - N/A   Clear
10:40 PM 86.9 °F 103.8 °F 80.8 °F 82% 29.91 in 10.0 mi SSW 3.5 mph - N/A   Clear
11:00 PM 86.9 °F 104.4 °F 81.1 °F 83% 29.90 in 10.0 mi Calm Calm - N/A   Clear
11:20 PM 86.7 °F 103.8 °F 81.0 °F 83% 29.90 in 10.0 mi Calm Calm - N/A   Clear
11:40 PM 86.4 °F 102.6 °F 80.8 °F 83% 29.89 in 10.0 mi SSE 3.5 mph - N/A   Clear